Regional Weather Roundup
Issued by NWS

Home | Current Version | Previous Version | Text Only | Print | Product List | Glossary On
Versions: 1 2 3 4 5 6 7 8 9 10 11 12 13 14 15 16 17 18 19 20 21 22 23 24 25 26 27 28 29 30 31 32 33 34 35 36 37 38 39 40 41 42 43 44 45 46 47 48 49 50
000
ASUS46 KLOX 292113
RWRCA

SOUTHERN CALIFORNIA WEATHER ROUNDUP
NATIONAL WEATHER SERVICE OXNARD CALIFORNIA
200 PM PDT SAT AUG 29 2015

NOTE: "FAIR" INDICATES FEW OR NO CLOUDS BELOW 12,000 FEET WITH NO
SIGNIFICANT WEATHER AND/OR OBSTRUCTIONS TO VISIBILITY.

  -  STATIONS PRECEEDED BY AN ASTERISK (*) ARE NOT NWS OR FAA
     STATIONS AND ARE NOT SUBJECT TO NWS AND FAA QUALITY CONTROL.

CAZ041-042-087-292200-
LA AND ORANGE COUNTY COASTAL AREAS


CITY           SKY/WX    TMP DP  RH WIND       PRES   REMARKS
L.A. DOWNTOWN  FAIR      89  64  43 CALM      29.86F HX  90
L.A. AIRPORT   FAIR      82  65  56 W13       29.88F
LONG BEACH     FAIR      88  63  43 S8        29.87F

CITY           SKY/WX    TMP DP  RH WIND       PRES   REMARKS
AVALON           N/A     77 N/A N/A N3          N/A
FULLERTON      FAIR      93  60  33 VRB3      29.86F HX  93
*GETTY CENTER    N/A     90  59  35 S8          N/A
HAWTHORNE      FAIR      86  66  51 W10       29.88F
*LEO CARRILLO    N/A     85  61  43 SW15        N/A
*LOS ALAMITOS  SUNNY     88  63  43 S10       29.87F
*REDONDO BEACH   N/A     81  70  69 W3        29.88F
SANTA ANA      FAIR      88  63  43 S9        29.87F
STA MONICA APT FAIR      83  63  50 SW10      29.88F
TORRANCE       SUNNY     86  72  62 NW16      29.88F HX  92
*UCLA            N/A     86  59  39 SW7       29.86F

$$

CAZ547-548-048-292200-
LA COUNTY VALLEYS AND INLAND EMPIRE


CITY           SKY/WX    TMP DP  RH WIND       PRES   REMARKS
BURBANK        FAIR      98  60  28 S12       29.87F HX  98
VAN NUYS       FAIR      98  58  26 S13       29.87F HX  97

CITY           SKY/WX    TMP DP  RH WIND       PRES   REMARKS
CORONA AIRPORT FAIR     100  57  23 W13       29.87F HX  99
*CHATSWORTH      N/A     99  56  23 W8        29.84S HX  97
CHINO          FAIR     102  54  20 W10G18    29.88F HX 100
*CLAREMONT       N/A     96  50  20 SW8         N/A  HX  93
MARCH AFB      SUNNY    100  47  16 NW14G21   29.91F HX  96
*NORTHRIDGE      N/A     99  54  22 SE6G12      N/A  HX  96
ONTARIO        FAIR     102  52  18 W13       29.88F HX  99
*PASADENA        N/A     97  63  32 E5          N/A  HX  98
POMONA         SUNNY     95  55  26 W10       29.92F HX  93
RIVERSIDE      FAIR     102  49  16 W12G17    29.87F HX  99
SAN BERNARDINO NOT AVBL
*SAN GABRIEL     N/A     96  64  34 S12       29.91S HX  97
*SAN RAFAEL HI   N/A    101  56  22 E7          N/A  HX 100
*SAUGUS          N/A     97  46  17 S8          N/A  HX  93
*WHITEMAN AP   SUNNY     95  55  26 S5        29.92F HX  93
*WHITTIER HILL   N/A     95  64  35 S8          N/A  HX  97
*WOODLAND HILL   N/A    102  54  19 SW3         N/A  HX 100

$$

CAZ054-055-292200-
LA AND SAN BERNARDINO COUNTY MOUNTAINS


CITY           SKY/WX    TMP DP  RH WIND       PRES   REMARKS
*ACTON           N/A    100  36  11 SW10        N/A  HX  94
*BIG BEAR AIRP FAIR      79  37  22 SW10G17   30.29S
*BIG PINES       N/A     81  37  21 SW2         N/A
SANDBERG       FAIR      86  43  22 N15G22    30.15F

$$

CAZ028-029-059-060-099-292200-
ANTELOPE VALLEY AND SURROUNDING AREAS


CITY           SKY/WX    TMP DP  RH WIND       PRES   REMARKS
LANCASTER      FAIR      98  40  13 SW12      29.95F HX  93
PALMDALE       FAIR      98  31   9 W18G25    29.97F HX  92
*POPPY PARK      N/A     98  44  15 W8G24       N/A  HX  94

CITY           SKY/WX    TMP DP  RH WIND       PRES   REMARKS
29 PALMS       FAIR     102  45  14 CALM      29.95F HX  98
BARSTOW/DAGGET FAIR     105  37   9 NW16G26   29.87F HX  99
BISHOP         FAIR      96  23   7 W13       29.93F HX  90
CHINA LAKE     FAIR     103  34   9 S20G29    29.88F HX  96
EDWARDS AFB    MOSUNNY  100  30   8 SW13G25   29.92F HX  93
MOJAVE         SUNNY     95  36  12 W16       29.98F HX  90
NEEDLES        FAIR     113  45  10 S15G22    29.77F HX 108
VICTORVILLE    FAIR      99  41  13 W3        29.98F HX  94

$$

CAZ039-040-292200-
VENTURA AND SANTA BARBARA COUNTY COAST


CITY           SKY/WX    TMP DP  RH WIND       PRES   REMARKS
CAMARILLO      FAIR      87  63  44 SW10      29.88F
NWS OXNARD       N/A     84  64  50 CALM      29.88S
OXNARD AIRPORT FAIR      78  66  66 SW10      29.89S
*POINT MUGU    FAIR      82  65  56 SW12      29.89F
SBA APT/GOLETA FAIR      83  66  56 SE9       29.87F
*SANTA BARBARA   N/A     91  62  37 CALM      29.94F HX  91
*VENTURA         N/A     88  62  42 SW9       29.50S

$$

CAZ044-045-292200-
VENTURA COUNTY VALLEYS


CITY           SKY/WX    TMP DP  RH WIND       PRES   REMARKS
*SIMI VALLEY     N/A     93  61  33 W5        29.82S HX  93
*OJAI            N/A    100  60  26 W5        29.79F HX  99
*FILLMORE        N/A     97  62  30 SW8       29.76S HX  98

$$

CAZ053-292200-
VENTURA COUNTY MOUNTAINS


CITY           SKY/WX    TMP DP  RH WIND       PRES   REMARKS
*LOCKWOOD VLY    N/A     84  37  18 NW3         N/A
*ROSE VALLEY     N/A     91  55  29 MISG        N/A

$$

CAZ034-035-036-292200-
CENTRAL COAST AND SANTA YNEZ VALLEY


CITY           SKY/WX    TMP DP  RH WIND       PRES   REMARKS
SAN LUIS OBISP FAIR      83  62  49 NW25      29.94S
SANTA MARIA    FAIR      80  63  55 NW23      29.95S

CITY           SKY/WX    TMP DP  RH WIND       PRES   REMARKS
*CAL POLY SLO    N/A     81  64  57 S8          N/A
*LOMPOC        FAIR      81  63  54 W20       29.97R
*PISMO BEACH     N/A     77  66  68 SW6       29.94S
*SANTA YNEZ    FAIR      90  55  31 W16G22    29.92S

$$

CAZ037-038-051-292200-
SAN LUIS OBISPO COUNTY INTERIOR AND CUYAMA VALLEY


CITY           SKY/WX    TMP DP  RH WIND       PRES   REMARKS
*CUYAMA          N/A     89  49  24 NE8       29.84S
PASO ROBLES    FAIR      92  49  22 VRB6      29.94F

$$

CAZ032-033-061-292200-
SOUTHERN DESERTS


CITY           SKY/WX    TMP DP  RH WIND       PRES   REMARKS
BLYTHE         FAIR     110  57  17 VRB5      29.75F HX 110
IMPERIAL       FAIR     112  49  12 SW8       29.72F HX 108
PALM SPRINGS   FAIR     113  46  10 NW17G25   29.77F HX 108
THERMAL        FAIR     112  49  12 VRB3      29.70F HX 108

$$

ELSEWHERE ACROSS THE WESTERN UNITED STATES AND MEXICO


CITY           SKY/WX    TMP DP  RH WIND       PRES   REMARKS
DENVER, CO     FAIR      89  37  16 E10G20    30.17F
GRAND CANYON,  CLOUDY    84  41  21 VRB3      30.29F
HONOLULU, HI   MOSUNNY   90  72  55 NE13G20   29.90S HX  96
KAHULUI, MAUI  MOSUNNY   90  72  55 NE20      29.91S HX  96
LAKE TAHOE, CA PTSUNNY   72  46  39 S17G24    30.16R
LAS VEGAS, NV  FAIR     105  44  12 SW13G24   29.82F HX 100
MAMMOTH LAKES, FAIR      79  30  17 W16G31    30.23F
MEXICO CITY, M CLOUDY    73  50  43 NE10      30.26F
PHOENIX, AZ    FAIR     109  57  18 CALM      29.80F HX 109
PORTLAND, OR   PTSUNNY   76  53  44 SW25G39   29.81S
RENO, NV       PTSUNNY   82  46  28 SW21      30.01S
SALT LAKE CITY PTSUNNY   95  40  14 SE18G26   29.99F HX  91
SAN DIEGO, CA  FAIR      85  66  53 NW8       29.89F
SAN FRANCISCO, PTSUNNY   74  60  61 W9        30.01S
SAN JOSE, CA   PTSUNNY   77  65  66 NW14G21   29.99S
SEATTLE, WA    PTSUNNY   70  56  61 S24G36    29.73R
TIJUANA, MEX   SUNNY     90  52  27 NW14      29.91

$$

STATION/POSITION TIME  TEMP    WIND        PRES    VSBY  WAVE
                       AIR SEA DIR/SP/G                  HT/PER
                 (UTC) (F)     (DEG/KT/KT) (MB)    (MI)  (FT/S)
POINT ARGUELLO B NOT AVBL
WEST SANTA BARBA 2050   67 68  310/ 23/ 27 1012.1F         5/15
POINT CONCEPTION NOT AVBL
EAST SANTA BARBA 2000   71 72  240/ 12/ 14 1012.5F
SANTA MONICA BAY 2050   74 76  250/  4/  6 1012.2F         3/14



USA.gov is the U.S. government's official web portal to all federal, state and local government web resources and services.